Hourly Weather Roundup
Issued by NWS Central Illinois

Home | Current Version | Previous Version | Text Only | Print | Product List | Glossary On
Versions: 1 2 3 4 5 6 7 8 9 10 11 12 13 14 15 16 17 18 19 20 21 22 23 24 25 26 27 28 29 30 31 32 33 34 35 36 37 38 39 40 41 42 43 44 45 46 47 48 49 50
000
NZUS43 KILX 270410
HWRILX

AREA WEATHER ROUNDUP
NATIONAL WEATHER SERVICE, LINCOLN IL
1100 PM CDT WED AUG 26 2015


CITY           SKY/WX    TMP DP  RH WIND       PRES   REMARKS
BLOOMINGTON    CLEAR     57  54  90 E5        30.19S
CHAMPAIGN      CLEAR     57  53  86 NE6       30.17F
DANVILLE       CLEAR     55  54  95 NE5       30.15S
DECATUR        CLEAR     55  51  86 CALM      30.18S
EFFINGHAM      CLEAR     59  52  76 CALM      30.18S
FLORA          CLEAR     60  55  84 N5        30.16S
GALESBURG      CLEAR     58  55  88 CALM      30.17S
JACKSONVILLE   CLEAR     61  56  83 E7        30.17S
LACON          CLEAR     57  53  88 CALM      30.17S
LAWRENCEVILLE  CLEAR     63  56  78 N7        30.14S
LITCHFIELD     CLEAR     59  53  80 E5        30.17S
$$


CITY           SKY/WX    TMP DP  RH WIND       PRES   REMARKS
LINCOLN        CLEAR     56  52  86 CALM      30.18S
MACOMB         CLEAR     56  55  95 CALM      30.19R
MATTOON        CLEAR     56  51  84 N5        30.16S
MT CARMEL AP   CLEAR     64  55  72 N3        30.14S
OLNEY-NOBLE AP CLEAR     61  55  82 N6        30.15F
PARIS          CLEAR     56  55  94 CALM      30.17S
PEORIA         CLEAR     62  54  74 E5        30.18R
PONTIAC        CLEAR     52  51  98 CALM      30.19S
RANTOUL        CLEAR     60  55  82 N5        30.18S
ROBINSON       CLEAR     59  56  89 N3        30.16S
SPRINGFIELD    CLEAR     61  54  77 E7        30.17S
TAYLORVILLE    CLEAR     57  54  88 E3        30.18R
$$

...REGIONAL REPORTS...


CITY           SKY/WX    TMP DP  RH WIND       PRES   REMARKS
CHICAGO O`HARE MOCLDY    63  52  67 E3        30.18R
KANKAKEE       CLEAR     55  53  94 CALM      30.19S
MOLINE         CLEAR     59  55  87 E3        30.16R
MOUNT STERLING CLEAR     59  55  89 CALM      30.16S
MOUNT VERNON   CLEAR     63  54  72 N8        30.15S
PITTSFIELD     CLEAR     61  56  86 NE3       30.17S
QUINCY         CLEAR     65  55  70 E5        30.16R
ROCKFORD       PTCLDY    58  53  84 S3        30.20S
$$


CITY           SKY/WX    TMP DP  RH WIND       PRES   REMARKS
BURLINGTON     CLEAR     62  58  86 CALM      30.16S
CEDAR RAPIDS   CLEAR     58  55  90 CALM      30.14F
DES MOINES     PTCLDY    68  52  56 SE7       30.14S
KIRKSVILLE     PTCLDY    59  55  87 CALM      30.16F
OTTUMWA        CLEAR     59  55  87 E6        30.14S
ST LOUIS       CLEAR     69  55  60 NE6       30.15R
$$


CITY           SKY/WX    TMP DP  RH WIND       PRES   REMARKS
TERRE HAUTE    CLEAR     60  56  86 N5        30.15S
EVANSVILLE     MOCLDY    67  58  72 N6        30.13R
INDIANAPOLIS   CLEAR     65  56  72 NE13      30.14R
LAFAYETTE      CLEAR     58  53  84 NE5       30.17S
MADISON        CLEAR     60  53  77 S5        30.16S
MILWAUKEE      CLEAR     58  51  78 CALM      30.18R
$$





USA.gov is the U.S. government's official web portal to all federal, state and local government web resources and services.